This is the latest recevied weather packets stored in our database for station/object AA8FM-13. If no packets are shown the sender has not sent any weather packets the latest 10 day(s).
| Time | Temp. | Humidity | Pressure | Rain* | Wind** | Luminosity | Snow |
|---|---|---|---|---|---|---|---|
| 1777988127 | 20.56° C | 54% | 1009 hPa | 0 mm | - | 359 W/m² | - |
| 1777987823 | 20° C | 56% | 1008.9 hPa | 0 mm | - | 396 W/m² | - |
| 1777987520 | 20° C | 55% | 1008.9 hPa | 0 mm | - | 167 W/m² | - |
| 1777987217 | 20° C | 55% | 1008.9 hPa | 0 mm | - | 126 W/m² | - |
| 1777986914 | 20.56° C | 54% | 1009 hPa | 0 mm | - | 111 W/m² | - |
| 1777986612 | 20.56° C | 56% | 1008.5 hPa | 0 mm | - | 213 W/m² | - |
| 1777986309 | 20° C | 56% | 1008.7 hPa | 0 mm | - | 180 W/m² | - |
| 1777986008 | 20° C | 57% | 1008.7 hPa | 0 mm | - | 124 W/m² | - |
| 1777985704 | 20° C | 56% | 1008.8 hPa | 0 mm | - | 150 W/m² | - |
| 1777985400 | 20° C | 57% | 1008.6 hPa | 0 mm | - | 106 W/m² | - |
| 1777985097 | 19.44° C | 57% | 1008.7 hPa | 0 mm | - | 113 W/m² | - |
| 1777984793 | 19.44° C | 59% | 1008.7 hPa | 0 mm | - | 91 W/m² | - |
| 1777984490 | 19.44° C | 58% | 1008.6 hPa | 0 mm | - | 51 W/m² | - |
| 1777984186 | 18.89° C | 58% | 1008.5 hPa | 0 mm | - | 51 W/m² | - |
| 1777983883 | 18.89° C | 59% | 1008.5 hPa | 0 mm | - | 51 W/m² | - |
| 1777983580 | 18.89° C | 58% | 1008.8 hPa | 0 mm | - | 43 W/m² | - |
| 1777983277 | 18.89° C | 58% | 1008.9 hPa | 0 mm | - | 71 W/m² | - |
| 1777982973 | 18.89° C | 58% | 1008.8 hPa | 0 mm | - | 54 W/m² | - |
| 1777982670 | 18.89° C | 59% | 1008.9 hPa | 0 mm | - | 68 W/m² | - |
| 1777982369 | 18.33° C | 59% | 1008.7 hPa | 0 mm | - | 53 W/m² | - |
| 1777982065 | 18.33° C | 61% | 1008.7 hPa | 0 mm | - | 42 W/m² | - |
| 1777981764 | 18.33° C | 60% | 1008.6 hPa | 0 mm | - | 51 W/m² | - |
| 1777981459 | 18.33° C | 60% | 1008.8 hPa | 0 mm | - | 35 W/m² | - |
| 1777981156 | 18.33° C | 59% | 1008.6 hPa | 0 mm | - | 44 W/m² | - |
| 1777980853 | 18.33° C | 60% | 1008.8 hPa | 0 mm | - | 43 W/m² | - |
* Rain latest hour (hover to see other rain measurements)
** Current wind speed in m/s (hover to see current wind gust speed)